FW7275 Weather Reports


time (UTC)temp
F
wind
direction
speed
knots
gust
knots
rain 1hr
in
rain 24hr
in
rain mn
in
humidity
%
barometer
mb
20260504021026 59 0 0.0 0.0 0.00 0.00 0.00 63
20260504020029 59 0 0.0 0.0 0.00 0.00 0.00 62
20260504015021 60 0 0.0 0.0 0.00 0.00 0.00 63
20260504014027 60 0 0.0 0.0 0.00 0.00 0.00 63
20260504013034 60 0 0.0 0.0 0.00 0.00 0.00 61
20260504012028 61 0 0.0 0.0 0.00 0.00 0.00 61
20260504011018 61 0 0.0 0.0 0.00 0.00 0.00 60
20260504010031 61 0 0.0 0.0 0.00 0.00 0.00 61
20260504005020 62 0 0.0 0.0 0.00 0.00 0.00 61
20260504004031 62 0 0.0 0.0 0.00 0.00 0.00 61
20260504000039 61 0 0.0 0.0 0.00 0.00 0.00 60
20260503234024 60 0 0.0 0.0 0.00 0.00 0.00 60
20260503233029 59 0 0.0 0.0 0.00 0.00 0.00 61
20260503231024 58 0 0.0 0.0 0.00 0.00 0.00 62
20260503230041 59 0 0.0 0.0 0.00 0.00 0.00 61
20260503225023 59 0 0.0 0.0 0.00 0.00 0.00 61
20260503224032 58 0 0.0 0.0 0.00 0.00 0.00 62
20260503223029 58 0 0.0 0.0 0.00 0.00 0.00 63
20260503222030 58 0 0.0 0.0 0.00 0.00 0.00 63
20260503221025 58 0 0.0 0.0 0.00 0.00 0.00 63
20260503220039 58 0 0.0 0.0 0.00 0.00 0.00 63
20260503215022 59 0 0.0 0.0 0.00 0.00 0.00 61
20260503213031 60 0 0.0 0.0 0.00 0.00 0.00 59
20260503212023 60 0 0.0 0.0 0.00 0.00 0.00 58
20260503211018 61 0 0.0 0.0 0.00 0.00 0.00 58
20260503210039 62 0 0.0 0.0 0.00 0.00 0.00 57
20260503205027 62 0 0.0 0.0 0.00 0.00 0.00 57
20260503204025 62 0 0.0 0.0 0.00 0.00 0.00 56
20260503203033 63 0 0.0 0.0 0.00 0.00 0.00 55
20260503195022 65 0 0.0 0.0 0.00 0.00 0.00 50
20260503194022 66 0 0.0 0.0 0.00 0.00 0.00 49
20260503193035 68 0 0.0 0.0 0.00 0.00 0.00 46
20260503192034 68 0 0.0 0.0 0.00 0.00 0.00 46
20260503191032 68 0 0.0 0.0 0.00 0.00 0.00 45
20260503190040 68 0 0.0 0.0 0.00 0.00 0.00 46
20260503185022 68 0 0.0 0.0 0.00 0.00 0.00 47
20260503184031 70 0 0.0 0.0 0.00 0.00 0.00 45
20260503183027 71 0 0.0 0.0 0.00 0.00 0.00 44
20260503182022 72 0 0.0 0.0 0.00 0.00 0.00 43
20260503181021 72 0 0.0 0.0 0.00 0.00 0.00 43
20260503174035 75 0 0.0 0.0 0.00 0.00 0.00 42
20260503173025 77 0 0.0 0.0 0.00 0.00 0.00 38
20260503172033 78 0 0.0 0.0 0.00 0.00 0.00 37
20260503171022 79 0 0.0 0.0 0.00 0.00 0.00 36
20260503071019 70 0 0.0 0.0 0.00 0.00 0.00 47
20260503054022 54 0 0.0 0.0 0.00 0.00 0.00 68
20260503053028 52 0 0.0 0.0 0.00 0.00 0.00 70
20260503052018 50 0 0.0 0.0 0.00 0.00 0.00 73
20260503050034 49 0 0.0 0.0 0.00 0.00 0.00 74
20260503045030 44 0 0.0 0.0 0.00 0.00 0.00 79
20260503044025 44 0 0.0 0.0 0.00 0.00 0.00 79
20260503043030 43 0 0.0 0.0 0.00 0.00 0.00 79
20260503042022 43 0 0.0 0.0 0.00 0.00 0.00 79
20260503041023 43 0 0.0 0.0 0.00 0.00 0.00 80
20260503040036 43 0 0.0 0.0 0.00 0.00 0.00 79
20260503035030 43 0 0.0 0.0 0.00 0.00 0.00 79
20260503033022 43 0 0.0 0.0 0.00 0.00 0.00 79
20260503032028 43 0 0.0 0.0 0.00 0.00 0.00 79
20260503031033 43 0 0.0 0.0 0.00 0.00 0.00 79
20260503030033 44 0 0.0 0.0 0.00 0.00 0.00 79
20260503025018 44 0 0.0 0.0 0.00 0.00 0.00 78
20260503024026 44 0 0.0 0.0 0.00 0.00 0.00 79
20260503023021 44 0 0.0 0.0 0.00 0.00 0.00 78
20260503022022 44 0 0.0 0.0 0.00 0.00 0.00 78